SHIYAN-1 (SY-1)

Last updated on Mon Sep 07 2026 00:02:44 GMT+0000 (Coordinated Universal Time)

1 28220U 04012A 26249.48738866 .00007694 00000+0 22427-3 0 9999 2 28220 97.8641 332.9358 0006640 93.0811 267.1191 15.35671121223569
UTC large
Height (km)
Speed (km/s)
/
Latitude / Longitude
Inclination (degrees)
Orbital Period (minutes)
Azimuth
Elevation
Range (km)
Doppler Factor

Next 0 passes for location: London (51.5072 / 0.1276)

No passes found over London.
SHIYAN-1 (SY-1)